• In Hungary
  • List of Countries
  • For 7 days
  • Water Temperature
  • Satellite Maps
  • Weather Map
  • News
  • Weather Widgets
  • user-avatar
    Login

    Hourly Weather Santiago del Estero

    Today, 18 January, Thursday

    Time Temperature Precipitation Wind Pressure Humidity
    00:00 +23°C° 0.5 mm 2 mps 744 mmHg 86%
    01:00 +23°C° 0.5 mm 2 mps 743 mmHg 86%
    02:00 +23°C° 0 mm 2 mps 744 mmHg 86%
    03:00 +21°C° 0.1 mm 2 mps 743 mmHg 86%
    04:00 +21°C° 0.1 mm 2 mps 743 mmHg 86%
    05:00 +22°C° 0.1 mm 1 mps 743 mmHg 86%
    06:00 +23°C° 0 mm 2 mps 744 mmHg 80%
    07:00 +24°C° 0 mm 2 mps 744 mmHg 75%
    08:00 +26°C° 0 mm 2 mps 744 mmHg 69%
    09:00 +27°C° 0 mm 3 mps 744 mmHg 62%
    10:00 +29°C° 0 mm 3 mps 744 mmHg 54%
    11:00 +31°C° 0 mm 3 mps 744 mmHg 47%
    12:00 +33°C° 0 mm 3 mps 744 mmHg 43%
    13:00 +34°C° 0 mm 3 mps 743 mmHg 40%
    14:00 +35°C° 0 mm 3 mps 743 mmHg 37%
    15:00 +35°C° 0 mm 3 mps 742 mmHg 36%
    16:00 +36°C° 0 mm 3 mps 742 mmHg 35%
    17:00 +36°C° 0 mm 3 mps 741 mmHg 34%
    18:00 +34°C° 0 mm 3 mps 742 mmHg 39%
    19:00 +31°C° 0 mm 2 mps 742 mmHg 44%
    20:00 +28°C° 0 mm 2 mps 742 mmHg 49%
    21:00 +28°C° 0 mm 2 mps 743 mmHg 53%
    22:00 +27°C° 0 mm 2 mps 743 mmHg 56%
    23:00 +26°C° 0 mm 2 mps 744 mmHg 59%

    Tomorrow, 19 January, Friday

    Time Temperature Precipitation Wind Pressure Humidity
    00:00 +26°C° 0 mm 2 mps 743 mmHg 61%
    01:00 +25°C° 0 mm 2 mps 743 mmHg 64%
    02:00 +25°C° 0 mm 2 mps 743 mmHg 66%
    03:00 +25°C° 0 mm 2 mps 743 mmHg 65%
    04:00 +24°C° 0 mm 2 mps 743 mmHg 64%
    05:00 +24°C° 0 mm 2 mps 743 mmHg 63%
    06:00 +26°C° 0 mm 2 mps 743 mmHg 58%
    07:00 +28°C° 0 mm 2 mps 744 mmHg 52%
    08:00 +30°C° 0 mm 3 mps 744 mmHg 46%
    09:00 +32°C° 0 mm 2 mps 744 mmHg 39%
    10:00 +35°C° 0 mm 2 mps 744 mmHg 32%
    11:00 +37°C° 0 mm 2 mps 744 mmHg 25%
    12:00 +37°C° 0 mm 2 mps 743 mmHg 24%
    13:00 +38°C° 0 mm 3 mps 742 mmHg 22%
    14:00 +39°C° 0 mm 3 mps 741 mmHg 21%
    15:00 +39°C° 0 mm 3 mps 741 mmHg 22%
    16:00 +39°C° 0 mm 3 mps 740 mmHg 23%
    17:00 +38°C° 0 mm 4 mps 740 mmHg 25%
    18:00 +36°C° 0 mm 3 mps 740 mmHg 30%
    19:00 +34°C° 0 mm 3 mps 740 mmHg 36%
    20:00 +31°C° 0 mm 2 mps 741 mmHg 41%
    21:00 +30°C° 0 mm 2 mps 741 mmHg 47%
    22:00 +30°C° 0 mm 2 mps 741 mmHg 52%
    23:00 +29°C° 0 mm 3 mps 741 mmHg 57%

    Day after tomorrow, 20 January, Saturday

    Time Temperature Precipitation Wind Pressure Humidity
    00:00 +28°C° 0 mm 2 mps 741 mmHg 59%
    01:00 +28°C° 0 mm 2 mps 740 mmHg 62%
    02:00 +27°C° 0 mm 2 mps 740 mmHg 65%
    03:00 +27°C° 0 mm 2 mps 740 mmHg 65%
    04:00 +26°C° 0 mm 1 mps 740 mmHg 65%
    05:00 +26°C° 0 mm 1 mps 740 mmHg 66%
    06:00 +27°C° 0 mm 2 mps 740 mmHg 63%
    07:00 +29°C° 0 mm 2 mps 740 mmHg 61%
    08:00 +30°C° 0 mm 2 mps 741 mmHg 59%
    09:00 +32°C° 0.3 mm 2 mps 741 mmHg 55%
    10:00 +34°C° 0.3 mm 3 mps 740 mmHg 51%
    11:00 +36°C° 0.3 mm 3 mps 740 mmHg 46%
    12:00 +36°C° 0.2 mm 3 mps 739 mmHg 46%
    13:00 +36°C° 0.2 mm 3 mps 738 mmHg 45%
    14:00 +36°C° 0.2 mm 4 mps 737 mmHg 45%
    15:00 +36°C° 0 mm 4 mps 737 mmHg 45%
    16:00 +36°C° 0 mm 4 mps 737 mmHg 45%
    17:00 +36°C° 0 mm 4 mps 736 mmHg 46%
    18:00 +34°C° 0.3 mm 4 mps 736 mmHg 52%
    19:00 +33°C° 0.3 mm 4 mps 737 mmHg 59%
    20:00 +30°C° 0.3 mm 4 mps 737 mmHg 65%
    21:00 +29°C° 0.5 mm 4 mps 737 mmHg 71%
    22:00 +28°C° 0.5 mm 3 mps 738 mmHg 77%
    23:00 +27°C° 0.5 mm 3 mps 738 mmHg 83%

    21 January, Sunday

    Time Temperature Precipitation Wind Pressure Humidity
    00:00 +26°C° 0 mm 2 mps 738 mmHg 85%
    01:00 +26°C° 0 mm 2 mps 737 mmHg 88%
    02:00 +26°C° 0 mm 1 mps 737 mmHg 90%
    03:00 +25°C° 0 mm 1 mps 736 mmHg 91%
    04:00 +25°C° 0 mm 2 mps 736 mmHg 92%
    05:00 +25°C° 0 mm 2 mps 736 mmHg 93%
    06:00 +26°C° 0.2 mm 2 mps 737 mmHg 89%
    07:00 +27°C° 0.2 mm 3 mps 737 mmHg 85%
    08:00 +28°C° 0.2 mm 3 mps 737 mmHg 81%
    09:00 +29°C° 0.6 mm 4 mps 737 mmHg 75%
    10:00 +30°C° 0.6 mm 4 mps 737 mmHg 68%
    11:00 +33°C° 0.6 mm 4 mps 737 mmHg 62%
    12:00 +34°C° 0 mm 4 mps 737 mmHg 56%
    13:00 +35°C° 0 mm 3 mps 736 mmHg 51%
    14:00 +36°C° 0 mm 3 mps 735 mmHg 46%
    15:00 +37°C° 0 mm 3 mps 735 mmHg 45%
    16:00 +37°C° 0 mm 3 mps 735 mmHg 45%
    17:00 +37°C° 0 mm 4 mps 734 mmHg 44%
    18:00 +35°C° 0 mm 3 mps 735 mmHg 50%
    19:00 +34°C° 0 mm 3 mps 735 mmHg 56%
    20:00 +31°C° 0 mm 2 mps 736 mmHg 62%
    21:00 +30°C° 0.1 mm 2 mps 736 mmHg 65%
    22:00 +29°C° 0.1 mm 2 mps 736 mmHg 69%
    23:00 +29°C° 0.1 mm 2 mps 736 mmHg 73%

    22 January, Monday

    Time Temperature Precipitation Wind Pressure Humidity
    00:00 +28°C° 0.3 mm 1 mps 736 mmHg 77%
    01:00 +27°C° 0.3 mm 1 mps 735 mmHg 81%
    02:00 +27°C° 0.3 mm 1 mps 735 mmHg 85%
    03:00 +26°C° 0.2 mm 1 mps 735 mmHg 86%
    04:00 +26°C° 0.2 mm 1 mps 735 mmHg 88%
    05:00 +26°C° 0.2 mm 1 mps 735 mmHg 90%
    06:00 +27°C° 0.1 mm 1 mps 735 mmHg 84%
    07:00 +27°C° 0.1 mm 0 mps 736 mmHg 78%
    08:00 +28°C° 0.1 mm 0 mps 736 mmHg 72%
    09:00 +32°C° 0.2 mm 1 mps 736 mmHg 64%
    10:00 +33°C° 0.2 mm 1 mps 736 mmHg 56%
    11:00 +36°C° 0.2 mm 2 mps 736 mmHg 48%
    12:00 +37°C° 0 mm 2 mps 735 mmHg 45%
    13:00 +38°C° 0 mm 3 mps 734 mmHg 41%
    14:00 +39°C° 0 mm 3 mps 734 mmHg 37%
    15:00 +39°C° 0 mm 3 mps 733 mmHg 37%
    16:00 +39°C° 0 mm 3 mps 733 mmHg 37%
    17:00 +39°C° 0 mm 3 mps 732 mmHg 37%
    18:00 +38°C° 0.1 mm 3 mps 733 mmHg 43%
    19:00 +36°C° 0.1 mm 3 mps 733 mmHg 48%
    20:00 +34°C° 0.1 mm 2 mps 734 mmHg 53%
    21:00 +32°C° 0.3 mm 2 mps 734 mmHg 58%
    22:00 +31°C° 0.3 mm 2 mps 734 mmHg 62%
    23:00 +30°C° 0.3 mm 2 mps 735 mmHg 67%

    23 January, Tuesday

    Time Temperature Precipitation Wind Pressure Humidity
    00:00 +30°C° 0.5 mm 2 mps 735 mmHg 70%
    01:00 +29°C° 0.5 mm 2 mps 734 mmHg 72%
    02:00 +28°C° 0.5 mm 1 mps 734 mmHg 75%
    03:00 +28°C° 0.2 mm 1 mps 734 mmHg 75%
    04:00 +28°C° 0.2 mm 1 mps 734 mmHg 76%
    05:00 +28°C° 0.2 mm 1 mps 734 mmHg 76%
    06:00 +29°C° 0.7 mm 1 mps 735 mmHg 73%
    07:00 +30°C° 0.7 mm 1 mps 735 mmHg 69%
    08:00 +31°C° 0.7 mm 1 mps 736 mmHg 66%
    09:00 +33°C° 0 mm 1 mps 736 mmHg 58%
    10:00 +36°C° 0 mm 1 mps 736 mmHg 51%
    11:00 +39°C° 0 mm 1 mps 736 mmHg 43%
    12:00 +40°C° 0 mm 1 mps 735 mmHg 40%
    13:00 +41°C° 0 mm 1 mps 734 mmHg 36%
    14:00 +41°C° 0 mm 1 mps 734 mmHg 33%
    15:00 +41°C° 0 mm 2 mps 733 mmHg 34%
    16:00 +42°C° 0 mm 3 mps 733 mmHg 35%
    17:00 +40°C° 0 mm 3 mps 733 mmHg 36%
    18:00 +39°C° 0 mm 3 mps 733 mmHg 41%
    19:00 +37°C° 0 mm 3 mps 734 mmHg 46%
    20:00 +36°C° 0 mm 2 mps 734 mmHg 50%
    21:00 +35°C° 0.4 mm 2 mps 734 mmHg 55%
    22:00 +34°C° 0.4 mm 2 mps 735 mmHg 59%
    23:00 +32°C° 0.4 mm 2 mps 735 mmHg 64%
    Show more